VCG1GG EGKK-LFML

Flight info

Callsign VCG1GG
Flight time 1h 23m
Altitude 33000
Route SFD Y47 BENBO L612 HAWKE UL612 VEULE DCT KOTAP DCT KETEX DCT KOTIS DCT KUKOR DCT UTUVA DCT LERGA
Aircraft B738/M-SDE2E3FGHIRWXY/LB1

Departure

Time 2026-05-07 10:10
Airport London Gatwick Airport (EGKK)

Arrival

Time 2026-05-07 11:34
Airport Marseille Provence Airport (LFML)
Time Latitude Longitude Altitude Speed Heading
2026-05-07 09:36 51.15415 -0.18927 214 ft 0 kts 258°
2026-05-07 09:55 51.15416 -0.18925 204 ft 2 kts 258°
2026-05-07 09:55 51.15421 -0.18886 211 ft 4 kts 258°
2026-05-07 09:55 51.15426 -0.18850 210 ft 4 kts 256°
2026-05-07 09:56 51.15437 -0.18816 211 ft 4 kts 211°
2026-05-07 09:56 51.15461 -0.18805 207 ft 4 kts 178°
2026-05-07 09:56 51.15486 -0.18810 208 ft 4 kts 168°
2026-05-07 09:56 51.15506 -0.18816 212 ft 0 kts 168°
2026-05-07 10:00 51.15499 -0.18814 211 ft 0 kts 168°
2026-05-07 10:00 51.15466 -0.18803 204 ft 9 kts 168°
2026-05-07 10:00 51.15387 -0.18775 212 ft 14 kts 166°
2026-05-07 10:01 51.15288 -0.18741 204 ft 14 kts 168°
2026-05-07 10:01 51.15235 -0.18723 207 ft 2 kts 168°
2026-05-07 10:01 51.15219 -0.18717 204 ft 2 kts 168°
2026-05-07 10:01 51.15201 -0.18711 206 ft 3 kts 167°
2026-05-07 10:02 51.15173 -0.18701 209 ft 6 kts 167°
2026-05-07 10:02 51.15129 -0.18746 210 ft 11 kts 253°
2026-05-07 10:02 51.15109 -0.18888 211 ft 15 kts 258°
2026-05-07 10:02 51.15084 -0.19073 214 ft 18 kts 258°
2026-05-07 10:03 51.15065 -0.19222 204 ft 10 kts 258°
2026-05-07 10:03 51.15013 -0.19269 205 ft 8 kts 170°
2026-05-07 10:03 51.14963 -0.19299 209 ft 9 kts 243°
2026-05-07 10:03 51.14944 -0.19422 209 ft 14 kts 258°
2026-05-07 10:04 51.14919 -0.19608 206 ft 20 kts 257°
2026-05-07 10:04 51.14897 -0.19765 214 ft 23 kts 258°
2026-05-07 10:04 51.14860 -0.20029 204 ft 25 kts 258°
2026-05-07 10:04 51.14825 -0.20288 212 ft 23 kts 257°
2026-05-07 10:05 51.14791 -0.20533 206 ft 22 kts 257°
2026-05-07 10:05 51.14761 -0.20751 203 ft 19 kts 258°
2026-05-07 10:05 51.14735 -0.20941 208 ft 17 kts 258°
2026-05-07 10:05 51.14711 -0.21116 210 ft 15 kts 258°
2026-05-07 10:06 51.14698 -0.21209 207 ft 0 kts 257°
2026-05-07 10:07 51.14698 -0.21212 211 ft 1 kts 257°
2026-05-07 10:07 51.14691 -0.21264 207 ft 9 kts 257°
2026-05-07 10:07 51.14646 -0.21339 204 ft 9 kts 183°
2026-05-07 10:08 51.14619 -0.21331 204 ft 0 kts 168°
2026-05-07 10:08 51.14617 -0.21330 204 ft 2 kts 168°
2026-05-07 10:08 51.14580 -0.21317 210 ft 9 kts 164°
2026-05-07 10:08 51.14525 -0.21240 214 ft 11 kts 119°
2026-05-07 10:09 51.14523 -0.21154 205 ft 0 kts 78°
2026-05-07 10:09 51.14525 -0.21134 214 ft 8 kts 78°
2026-05-07 10:10 51.14595 -0.20629 210 ft 88 kts 77°
2026-05-07 10:10 51.14778 -0.19296 271 ft 150 kts 78°
2026-05-07 10:10 51.15011 -0.17586 958 ft 164 kts 78°
2026-05-07 10:10 51.15263 -0.15786 1918 ft 161 kts 79°
2026-05-07 10:11 51.15522 -0.13968 2724 ft 182 kts 79°
2026-05-07 10:11 51.15835 -0.11796 3065 ft 217 kts 77°
2026-05-07 10:11 51.16012 -0.09322 3571 ft 232 kts 99°
2026-05-07 10:11 51.15380 -0.06966 4373 ft 236 kts 127°
2026-05-07 10:12 51.14119 -0.05105 4826 ft 261 kts 157°
2026-05-07 10:12 51.12353 -0.04374 5752 ft 265 kts 170°
2026-05-07 10:12 51.10533 -0.03799 6783 ft 268 kts 169°
2026-05-07 10:12 51.08697 -0.03177 7749 ft 272 kts 169°
2026-05-07 10:13 51.06832 -0.02536 8688 ft 277 kts 168°
2026-05-07 10:13 51.04932 -0.01883 9639 ft 282 kts 168°
2026-05-07 10:13 51.02994 -0.01216 10485 ft 290 kts 168°
2026-05-07 10:13 51.00926 -0.00507 10755 ft 318 kts 168°
2026-05-07 10:14 50.98676 0.00261 10988 ft 342 kts 168°
2026-05-07 10:14 50.96312 0.01068 11664 ft 351 kts 168°
2026-05-07 10:14 50.93908 0.01888 12553 ft 355 kts 168°
2026-05-07 10:14 50.91487 0.02713 13484 ft 358 kts 168°
2026-05-07 10:15 50.89063 0.03535 14316 ft 363 kts 168°
2026-05-07 10:15 50.86547 0.04388 15188 ft 366 kts 168°
2026-05-07 10:15 50.84045 0.05234 16049 ft 370 kts 168°
2026-05-07 10:15 50.81542 0.06081 16896 ft 374 kts 168°
2026-05-07 10:16 50.78947 0.06957 17751 ft 379 kts 169°
2026-05-07 10:16 50.76387 0.07821 18533 ft 383 kts 169°
2026-05-07 10:16 50.73761 0.08706 19243 ft 387 kts 169°
2026-05-07 10:16 50.71113 0.09598 19946 ft 391 kts 169°
2026-05-07 10:17 50.68432 0.10500 20641 ft 395 kts 169°
2026-05-07 10:17 50.65730 0.11407 21326 ft 400 kts 169°
2026-05-07 10:17 50.62992 0.12326 21985 ft 404 kts 169°
2026-05-07 10:17 50.60231 0.13251 22630 ft 408 kts 169°
2026-05-07 10:18 50.57437 0.14187 23272 ft 412 kts 169°
2026-05-07 10:18 50.54619 0.15129 23861 ft 416 kts 169°
2026-05-07 10:18 50.51771 0.16080 24381 ft 420 kts 169°
2026-05-07 10:18 50.48909 0.17035 24906 ft 423 kts 169°
2026-05-07 10:19 50.46017 0.17998 25421 ft 426 kts 169°
2026-05-07 10:19 50.43106 0.18967 25918 ft 429 kts 169°
2026-05-07 10:19 50.40173 0.19942 26388 ft 432 kts 170°
2026-05-07 10:19 50.37218 0.20923 26845 ft 436 kts 170°
2026-05-07 10:20 50.34235 0.21912 27304 ft 439 kts 170°
2026-05-07 10:20 50.31236 0.22905 27758 ft 442 kts 170°
2026-05-07 10:20 50.28217 0.23904 28202 ft 445 kts 170°
2026-05-07 10:20 50.25183 0.24906 28628 ft 448 kts 170°
2026-05-07 10:21 50.22135 0.26018 29032 ft 452 kts 165°
2026-05-07 10:21 50.19190 0.27809 29418 ft 458 kts 156°
2026-05-07 10:21 50.16424 0.30348 29799 ft 463 kts 148°
2026-05-07 10:21 50.13749 0.33151 30222 ft 464 kts 148°
2026-05-07 10:22 50.11078 0.35978 30696 ft 463 kts 148°
2026-05-07 10:22 50.08420 0.38770 31229 ft 460 kts 148°
2026-05-07 10:22 50.05768 0.41525 31734 ft 458 kts 148°
2026-05-07 10:22 50.03113 0.44255 32178 ft 457 kts 148°
2026-05-07 10:23 50.00459 0.46968 32613 ft 456 kts 148°
2026-05-07 10:23 49.97811 0.49664 33053 ft 456 kts 148°
2026-05-07 10:23 49.95144 0.52376 33046 ft 459 kts 149°
2026-05-07 10:24 49.89825 0.57782 33074 ft 455 kts 149°
2026-05-07 10:24 49.84537 0.63160 33081 ft 454 kts 148°
2026-05-07 10:25 49.79372 0.68808 33078 ft 454 kts 146°
2026-05-07 10:25 49.74256 0.74558 33070 ft 454 kts 146°
2026-05-07 10:26 49.69130 0.80269 33074 ft 455 kts 146°
2026-05-07 10:26 49.64017 0.85910 33078 ft 455 kts 146°
2026-05-07 10:27 49.58849 0.91579 33070 ft 457 kts 146°
2026-05-07 10:27 49.53668 0.97245 33072 ft 457 kts 146°
2026-05-07 10:28 49.48486 1.02900 33073 ft 456 kts 146°
2026-05-07 10:28 49.43302 1.08542 33070 ft 457 kts 146°
2026-05-07 10:29 49.38112 1.14177 33087 ft 457 kts 146°
2026-05-07 10:29 49.32916 1.19802 33071 ft 458 kts 147°
2026-05-07 10:30 49.25116 1.28220 33078 ft 456 kts 147°
2026-05-07 10:30 49.19925 1.33804 33066 ft 455 kts 147°
2026-05-07 10:31 49.14750 1.39356 33075 ft 455 kts 147°
2026-05-07 10:31 49.09568 1.44901 33089 ft 455 kts 147°
2026-05-07 10:32 49.04380 1.50437 33072 ft 455 kts 147°
2026-05-07 10:32 48.99194 1.55958 33064 ft 455 kts 147°
2026-05-07 10:33 48.94002 1.61471 33061 ft 455 kts 147°
2026-05-07 10:33 48.88815 1.66964 33069 ft 454 kts 147°
2026-05-07 10:34 48.83624 1.72448 33057 ft 454 kts 147°
2026-05-07 10:34 48.78433 1.77917 33066 ft 455 kts 147°
2026-05-07 10:35 48.73228 1.83386 33057 ft 455 kts 147°
2026-05-07 10:35 48.68015 1.88851 33067 ft 455 kts 147°
2026-05-07 10:36 48.62807 1.94296 33036 ft 455 kts 147°
2026-05-07 10:36 48.57588 1.99739 33049 ft 455 kts 147°
2026-05-07 10:37 48.52368 2.05168 33061 ft 456 kts 147°
2026-05-07 10:37 48.47142 2.10591 33056 ft 456 kts 147°
2026-05-07 10:38 48.41911 2.16006 33050 ft 456 kts 147°
2026-05-07 10:38 48.36678 2.21410 33045 ft 456 kts 147°
2026-05-07 10:39 48.31435 2.26810 33057 ft 456 kts 147°
2026-05-07 10:39 48.25839 2.31148 33047 ft 453 kts 164°
2026-05-07 10:40 48.19751 2.33468 33037 ft 451 kts 168°
2026-05-07 10:40 48.13665 2.35823 33056 ft 452 kts 166°
2026-05-07 10:41 48.07662 2.38654 33066 ft 453 kts 163°
2026-05-07 10:41 48.01698 2.41695 33061 ft 453 kts 163°
2026-05-07 10:42 47.95725 2.44714 33060 ft 453 kts 163°
2026-05-07 10:42 47.89743 2.47690 33065 ft 453 kts 163°
2026-05-07 10:43 47.83764 2.50642 33060 ft 453 kts 163°
2026-05-07 10:43 47.78784 2.53093 33051 ft 453 kts 163°
2026-05-07 10:44 47.72796 2.56036 33044 ft 453 kts 163°
2026-05-07 10:44 47.66804 2.58975 33044 ft 454 kts 163°
2026-05-07 10:45 47.60805 2.61910 33041 ft 454 kts 163°
2026-05-07 10:45 47.54805 2.64839 33040 ft 454 kts 163°
2026-05-07 10:46 47.48814 2.67756 33043 ft 454 kts 164°
2026-05-07 10:46 47.42818 2.70669 33045 ft 453 kts 164°
2026-05-07 10:47 47.36827 2.73572 33041 ft 453 kts 164°
2026-05-07 10:47 47.30829 2.76473 33032 ft 453 kts 164°
2026-05-07 10:48 47.24834 2.79366 33034 ft 453 kts 164°
2026-05-07 10:48 47.18868 2.82315 33040 ft 452 kts 163°
2026-05-07 10:49 47.12932 2.85399 33031 ft 452 kts 163°
2026-05-07 10:49 47.07000 2.88484 33046 ft 452 kts 163°
2026-05-07 10:50 47.01101 2.91526 33051 ft 452 kts 163°
2026-05-07 10:50 46.95161 2.94571 33043 ft 453 kts 163°
2026-05-07 10:51 46.89214 2.97611 33046 ft 453 kts 164°
2026-05-07 10:51 46.83258 3.00648 33041 ft 453 kts 164°
2026-05-07 10:52 46.77301 3.03678 33042 ft 453 kts 164°
2026-05-07 10:52 46.71346 3.06701 33044 ft 454 kts 164°
2026-05-07 10:53 46.65376 3.09724 33028 ft 454 kts 164°
2026-05-07 10:53 46.59410 3.12738 33040 ft 454 kts 164°
2026-05-07 10:54 46.53441 3.15747 33044 ft 454 kts 164°
2026-05-07 10:54 46.47466 3.18752 33027 ft 454 kts 164°
2026-05-07 10:55 46.41494 3.21749 33027 ft 453 kts 164°
2026-05-07 10:55 46.35521 3.24739 33043 ft 454 kts 165°
2026-05-07 10:56 46.29547 3.27722 33038 ft 454 kts 165°
2026-05-07 10:56 46.23574 3.30698 33045 ft 454 kts 165°
2026-05-07 10:57 46.17593 3.33671 33051 ft 454 kts 165°
2026-05-07 10:57 46.11615 3.36636 33027 ft 454 kts 165°
2026-05-07 10:58 46.05640 3.39593 33044 ft 454 kts 165°
2026-05-07 10:58 45.99661 3.42545 33039 ft 454 kts 165°
2026-05-07 10:59 45.93681 3.45491 33038 ft 454 kts 165°
2026-05-07 10:59 45.87708 3.48428 33036 ft 454 kts 165°
2026-05-07 11:00 45.81713 3.51215 33035 ft 452 kts 167°
2026-05-07 11:00 45.75682 3.53758 33036 ft 451 kts 168°
2026-05-07 11:01 45.69657 3.56298 33011 ft 451 kts 168°
2026-05-07 11:01 45.63638 3.58868 33019 ft 452 kts 168°
2026-05-07 11:02 45.57612 3.61451 33016 ft 452 kts 168°
2026-05-07 11:02 45.51588 3.64027 33016 ft 452 kts 168°
2026-05-07 11:03 45.45591 3.66584 33008 ft 453 kts 168°
2026-05-07 11:03 45.39551 3.69155 33011 ft 453 kts 168°
2026-05-07 11:04 45.33497 3.71725 33006 ft 454 kts 168°
2026-05-07 11:04 45.27674 3.75250 33013 ft 469 kts 144°
2026-05-07 11:05 45.25438 3.78665 33026 ft 478 kts 128°
2026-05-07 11:05 45.23945 3.82906 33018 ft 486 kts 110°
2026-05-07 11:05 45.22094 3.92142 33006 ft 487 kts 107°
2026-05-07 11:06 45.20303 4.01411 33007 ft 487 kts 108°
2026-05-07 11:06 45.18433 4.10643 33006 ft 487 kts 109°
2026-05-07 11:07 45.16522 4.19852 33004 ft 487 kts 109°
2026-05-07 11:07 45.14606 4.29045 32998 ft 487 kts 109°
2026-05-07 11:08 45.12688 4.38229 33007 ft 486 kts 109°
2026-05-07 11:08 45.11564 4.42731 32984 ft 483 kts 120°
2026-05-07 11:08 45.09694 4.46597 32997 ft 473 kts 137°
2026-05-07 11:09 45.04749 4.52572 33004 ft 467 kts 146°
2026-05-07 11:09 44.99680 4.58366 32990 ft 469 kts 146°
2026-05-07 11:10 44.94638 4.64231 33000 ft 470 kts 145°
2026-05-07 11:10 44.89596 4.70145 32991 ft 472 kts 145°
2026-05-07 11:11 44.84543 4.76063 33022 ft 473 kts 145°
2026-05-07 11:11 44.79472 4.81985 33008 ft 474 kts 145°
2026-05-07 11:12 44.74391 4.87880 33005 ft 472 kts 148°
2026-05-07 11:12 44.71585 4.90140 33014 ft 458 kts 165°
2026-05-07 11:12 44.68541 4.91194 33010 ft 448 kts 177°
2026-05-07 11:13 44.62388 4.92520 32989 ft 447 kts 177°
2026-05-07 11:13 44.56231 4.93872 32990 ft 448 kts 176°
2026-05-07 11:14 44.50058 4.95286 32419 ft 454 kts 176°
2026-05-07 11:14 44.46950 4.96010 31698 ft 450 kts 176°
2026-05-07 11:14 44.43865 4.96732 30868 ft 449 kts 176°
2026-05-07 11:15 44.40781 4.97451 29982 ft 450 kts 175°
2026-05-07 11:15 44.37686 4.98170 28891 ft 451 kts 175°
2026-05-07 11:15 44.34592 4.98889 28041 ft 448 kts 175°
2026-05-07 11:15 44.31541 4.99599 27300 ft 442 kts 175°
2026-05-07 11:16 44.28532 5.00297 26615 ft 435 kts 174°
2026-05-07 11:16 44.25563 5.00984 25914 ft 430 kts 174°
2026-05-07 11:16 44.22632 5.01661 25235 ft 425 kts 174°
2026-05-07 11:16 44.19733 5.02328 24566 ft 421 kts 174°
2026-05-07 11:17 44.16889 5.02983 23884 ft 418 kts 173°
2026-05-07 11:17 44.14034 5.03640 23127 ft 415 kts 173°
2026-05-07 11:17 44.11198 5.04292 22361 ft 410 kts 173°
2026-05-07 11:17 44.08361 5.04944 21642 ft 405 kts 173°
2026-05-07 11:18 44.05628 5.05572 20989 ft 400 kts 173°
2026-05-07 11:18 44.02897 5.06198 20332 ft 396 kts 172°
2026-05-07 11:18 44.00193 5.06817 19684 ft 392 kts 172°
2026-05-07 11:18 43.97516 5.07430 19050 ft 388 kts 172°
2026-05-07 11:19 43.94829 5.08044 18421 ft 385 kts 172°
2026-05-07 11:19 43.92192 5.08646 17698 ft 382 kts 172°
2026-05-07 11:19 43.89613 5.09235 17018 ft 379 kts 172°
2026-05-07 11:19 43.87039 5.09952 16378 ft 375 kts 165°
2026-05-07 11:20 43.84569 5.11069 15756 ft 372 kts 161°
2026-05-07 11:20 43.82156 5.12303 15245 ft 368 kts 160°
2026-05-07 11:20 43.79790 5.13515 15085 ft 355 kts 161°
2026-05-07 11:20 43.77460 5.14670 15010 ft 352 kts 161°
2026-05-07 11:21 43.75192 5.15761 14983 ft 337 kts 162°
2026-05-07 11:21 43.73024 5.16788 14853 ft 324 kts 162°
2026-05-07 11:21 43.70913 5.17783 14517 ft 318 kts 162°
2026-05-07 11:21 43.68809 5.18742 14016 ft 319 kts 163°
2026-05-07 11:22 43.66678 5.19693 13236 ft 327 kts 163°
2026-05-07 11:22 43.64469 5.20679 12232 ft 340 kts 163°
2026-05-07 11:22 43.62195 5.21698 11555 ft 343 kts 163°
2026-05-07 11:22 43.59980 5.22694 11370 ft 324 kts 163°
2026-05-07 11:23 43.57862 5.23411 11085 ft 306 kts 178°
2026-05-07 11:23 43.55780 5.23233 10609 ft 296 kts 187°
2026-05-07 11:23 43.53771 5.22940 10215 ft 285 kts 187°
2026-05-07 11:23 43.51815 5.22664 9685 ft 281 kts 187°
2026-05-07 11:24 43.49878 5.22406 9111 ft 279 kts 187°
2026-05-07 11:24 43.48597 5.22241 8850 ft 279 kts 187°
2026-05-07 11:24 43.46667 5.21997 8480 ft 278 kts 187°
2026-05-07 11:24 43.44744 5.21757 8135 ft 276 kts 187°
2026-05-07 11:25 43.42839 5.21525 7840 ft 275 kts 186°
2026-05-07 11:25 43.40926 5.21307 7562 ft 276 kts 186°
2026-05-07 11:25 43.39008 5.21091 7293 ft 276 kts 186°
2026-05-07 11:25 43.37093 5.20875 7018 ft 275 kts 186°
2026-05-07 11:26 43.35191 5.20660 6751 ft 274 kts 186°
2026-05-07 11:26 43.33293 5.20444 6484 ft 273 kts 186°
2026-05-07 11:26 43.31403 5.20231 6204 ft 271 kts 186°
2026-05-07 11:26 43.29536 5.20026 5930 ft 267 kts 184°
2026-05-07 11:27 43.27726 5.20471 5645 ft 267 kts 155°
2026-05-07 11:27 43.26198 5.21864 5407 ft 263 kts 143°
2026-05-07 11:27 43.24771 5.23405 5148 ft 259 kts 143°
2026-05-07 11:27 43.23485 5.25107 4875 ft 258 kts 123°
2026-05-07 11:28 43.22907 5.27398 4633 ft 255 kts 96°
2026-05-07 11:28 43.23049 5.29780 4356 ft 252 kts 68°
2026-05-07 11:28 43.24022 5.31691 4156 ft 241 kts 38°
2026-05-07 11:28 43.25439 5.32720 3981 ft 224 kts 14°
2026-05-07 11:29 43.26941 5.32930 3723 ft 210 kts 357°
2026-05-07 11:29 43.28355 5.32898 3488 ft 197 kts 356°
2026-05-07 11:29 43.29691 5.32857 3284 ft 188 kts 356°
2026-05-07 11:29 43.30973 5.32820 3101 ft 181 kts 356°
2026-05-07 11:30 43.32191 5.32788 3000 ft 169 kts 357°
2026-05-07 11:30 43.33323 5.32759 2989 ft 161 kts 357°
2026-05-07 11:30 43.34451 5.32730 2999 ft 162 kts 358°
2026-05-07 11:30 43.35571 5.32622 2804 ft 163 kts 340°
2026-05-07 11:31 43.36417 5.31708 2605 ft 156 kts 313°
2026-05-07 11:31 43.37225 5.30704 2312 ft 155 kts 315°
2026-05-07 11:31 43.37965 5.29662 2028 ft 149 kts 311°
2026-05-07 11:31 43.38664 5.28663 1779 ft 138 kts 312°
2026-05-07 11:32 43.39948 5.26784 1315 ft 135 kts 310°
2026-05-07 11:32 43.40601 5.25868 1038 ft 134 kts 314°
2026-05-07 11:32 43.41274 5.24958 788 ft 138 kts 312°
2026-05-07 11:33 43.41927 5.23997 566 ft 139 kts 311°
2026-05-07 11:33 43.42598 5.23023 300 ft 141 kts 312°
2026-05-07 11:33 43.43282 5.22051 64 ft 138 kts 312°
2026-05-07 11:33 43.43889 5.21185 28 ft 108 kts 313°
2026-05-07 11:34 43.44268 5.20647 17 ft 41 kts 316°
2026-05-07 11:34 43.44426 5.20425 18 ft 29 kts 313°
2026-05-07 11:34 43.44533 5.20270 18 ft 18 kts 313°
2026-05-07 11:34 43.44640 5.20245 18 ft 16 kts 37°
2026-05-07 11:35 43.44676 5.20333 17 ft 9 kts 113°
2026-05-07 11:35 43.44632 5.20403 17 ft 10 kts 134°
2026-05-07 11:35 43.44579 5.20479 17 ft 13 kts 134°
2026-05-07 11:35 43.44506 5.20578 17 ft 16 kts 135°
2026-05-07 11:36 43.44427 5.20694 17 ft 17 kts 133°
2026-05-07 11:36 43.44351 5.20804 17 ft 15 kts 133°
2026-05-07 11:36 43.44297 5.20917 17 ft 14 kts 117°
2026-05-07 11:36 43.44243 5.21025 20 ft 13 kts 128°
2026-05-07 11:37 43.44210 5.21071 21 ft 0 kts 134°
2026-05-07 11:37 43.44206 5.21077 21 ft 2 kts 131°
2026-05-07 11:37 43.44181 5.21114 22 ft 8 kts 133°
2026-05-07 11:38 43.44128 5.21192 24 ft 14 kts 134°
2026-05-07 11:38 43.44069 5.21282 27 ft 11 kts 115°
2026-05-07 11:38 43.44088 5.21372 27 ft 11 kts 45°
2026-05-07 11:38 43.44141 5.21442 27 ft 10 kts 44°
2026-05-07 11:39 43.44181 5.21458 26 ft 6 kts 329°
2026-05-07 11:39 43.44210 5.21419 27 ft 3 kts 314°
2026-05-07 11:39 43.44213 5.21416 26 ft 0 kts 314°